User: anonymous   Login
Location: Caltech
(34.1382°N, 118.1253°W)
Time: 18:26:29
(UTC-07:00)
Language:

Cosmos 1975 - Orbit

View from above orbital plane
View from above orbital plane
View from above satellite
View from above satellite

Ground track
Ground track

The orbit data is extracted from the following two-line orbital elements,

1 19573U 88093A   16238.14246968  .00000045  00000-0  11509-5 0  9993
2 19573  82.5186 271.8251 0013475 221.1711 138.8500 15.03802254515318
Epoch (UTC): 25 August 2016 03:25:09
Eccentricity: 0.0013475
inclination: 82.5186°
perigee height: 546 km
apogee height: 564 km
right ascension of ascending node: 271.8251°
argument of perigee: 221.1711°
revolutions per day: 15.03802254
mean anomaly at epoch: 138.8500°
orbit number at epoch: 51531

The dashed part of the orbit path shows where the satellite is in the earth's shadow,  

DLR